Weather History for Chickasha, OK

Change the Weather History Date:

Friday, September 27, 2013

  Actual Average Record
Temperature  
Mean Temperature 74 °F -  
Max Temperature 89 °F 82 °F 99 °F (1977)
Min Temperature 60 °F 55 °F 43 °F (1956)
Cooling Degree Days 10    
Growing Degree Days 24 (Base 50)    
Moisture  
Dew Point 63 °F    
Average Humidity 64    
Maximum Humidity 88    
Minimum Humidity 43    
Precipitation  
Precipitation 0.00 in - - ()
Sea Level Pressure  
Sea Level Pressure 29.87 in    
Wind  
Wind Speed 10 mph (SSE)    
Max Wind Speed 21 mph    
Max Gust Speed 28 mph    
Visibility 10 miles    
Events      
Averages and records for this station are not official NWS values.
T = Trace of Precipitation, MM = Missing Value Source: NWS Daily Summary

Daily Weather History Graph

Daily Weather History Graph

Search for Another Location

Airport:

Trip Planner

Search our weather history database for the weather conditions in past years. The results will help you decide how hot, cold, wet, or windy it might be!

Date:

Astronomy

Sep. 27, 2013 Rise Set
Actual Time 7:23 AM CDT 7:21 PM CDT
Civil Twilight 6:58 AM CDT 7:46 PM CDT
Nautical Twilight 6:29 AM CDT 8:15 PM CDT
Astronomical Twilight 5:59 AM CDT 8:45 PM CDT
Moon 12:33 AM CDT 2:48 PM CDT
Length of Visible Light 12h 47m
Length of Day
11h 57m
Last Quarter, 45% of the Moon is Illuminated
Sep 27
Last Quarter
Oct 4
New
Oct 11
First Quarter
Oct 18
Full
Oct 26
Last Quarter

Hourly Weather History & Observations

Time (CDT) Temp. Heat Index Dew Point Humidity Pressure Visibility Wind Dir Wind Speed Gust Speed Precip Events Conditions
12:15 AM 71.6 °F - 55.4 °F 57% 29.87 in 10.0 mi South 6.9 mph - N/A   Clear
12:35 AM 71.6 °F - 55.4 °F 57% 29.87 in 10.0 mi South 6.9 mph - N/A   Clear
12:55 AM 71.6 °F - 53.6 °F 53% 29.88 in 10.0 mi SSE 8.1 mph - N/A   Clear
1:15 AM 71.6 °F - 55.4 °F 57% 29.88 in 10.0 mi SSE 6.9 mph - N/A   Clear
1:35 AM 68.0 °F - 53.6 °F 60% 29.89 in 10.0 mi SSE 4.6 mph - N/A   Clear
1:55 AM 68.0 °F - 55.4 °F 64% 29.89 in 10.0 mi SSE 5.8 mph - N/A   Clear
2:15 AM 68.0 °F - 55.4 °F 64% 29.89 in 10.0 mi SSE 6.9 mph - N/A   Clear
2:35 AM 68.0 °F - 55.4 °F 64% 29.89 in 10.0 mi SSE 6.9 mph - N/A   Clear
2:55 AM 68.0 °F - 57.2 °F 68% 29.89 in 10.0 mi SE 6.9 mph - N/A   Clear
3:15 AM 66.2 °F - 55.4 °F 68% 29.89 in 10.0 mi SE 5.8 mph - N/A   Clear
3:35 AM 66.2 °F - 55.4 °F 68% 29.89 in 10.0 mi SSE 6.9 mph - N/A   Clear
3:55 AM 66.2 °F - 57.2 °F 73% 29.89 in 10.0 mi SE 8.1 mph - N/A   Clear
4:15 AM 64.4 °F - 55.4 °F 73% 29.89 in 10.0 mi SE 8.1 mph - N/A   Clear
4:35 AM 62.6 °F - 55.4 °F 77% 29.88 in 10.0 mi SE 5.8 mph - N/A   Clear
4:55 AM 62.6 °F - 55.4 °F 77% 29.88 in 10.0 mi SE 6.9 mph - N/A   Clear
5:15 AM 62.6 °F - 55.4 °F 77% 29.89 in 10.0 mi SSE 5.8 mph - N/A   Clear
5:35 AM 60.8 °F - 55.4 °F 82% 29.89 in 10.0 mi SE 5.8 mph - N/A   Clear
5:55 AM 60.8 °F - 55.4 °F 82% 29.89 in 10.0 mi SSE 5.8 mph - N/A   Clear
6:15 AM 62.6 °F - 57.2 °F 82% 29.90 in 10.0 mi SE 6.9 mph - N/A   Clear
6:35 AM 62.6 °F - 57.2 °F 82% 29.90 in 10.0 mi SE 6.9 mph - N/A   Clear
6:55 AM 62.6 °F - 59.0 °F 88% 29.90 in 10.0 mi SE 6.9 mph - N/A   Clear
7:15 AM 62.6 °F - 57.2 °F 82% 29.90 in 10.0 mi SE 5.8 mph - N/A   Clear
7:35 AM 62.6 °F - 57.2 °F 82% 29.91 in 10.0 mi SE 5.8 mph - N/A   Clear
7:55 AM 62.6 °F - 57.2 °F 82% 29.91 in 10.0 mi SE 3.5 mph - N/A   Clear
8:15 AM 66.2 °F - 60.8 °F 83% 29.92 in 10.0 mi SE 5.8 mph - N/A   Clear
8:35 AM 68.0 °F - 62.6 °F 83% 29.92 in 10.0 mi SE 8.1 mph - N/A   Clear
8:55 AM 68.0 °F - 60.8 °F 78% 29.92 in 10.0 mi SE 6.9 mph - N/A   Clear
9:15 AM 71.6 °F - 62.6 °F 73% 29.92 in 10.0 mi SSE 8.1 mph - N/A   Clear
9:35 AM 73.4 °F - 64.4 °F 73% 29.92 in 10.0 mi SSE 10.4 mph - N/A   Clear
9:55 AM 77.0 °F - 66.2 °F 69% 29.92 in 10.0 mi SSE 9.2 mph - N/A   Clear
10:15 AM 78.8 °F - 68.0 °F 69% 29.92 in 10.0 mi South 16.1 mph 19.6 mph N/A   Clear
10:35 AM 80.6 °F 83.2 °F 68.0 °F 65% 29.92 in 10.0 mi South 16.1 mph 21.9 mph N/A   Clear
10:55 AM 80.6 °F 83.2 °F 68.0 °F 65% 29.92 in 10.0 mi South 12.7 mph 19.6 mph N/A   Clear
11:15 AM 82.4 °F 85.4 °F 68.0 °F 62% 29.91 in 10.0 mi South 17.3 mph 24.2 mph N/A   Clear
11:35 AM 84.2 °F 87.3 °F 68.0 °F 58% 29.91 in 10.0 mi South 16.1 mph 23.0 mph N/A   Mostly Cloudy
11:55 AM 82.4 °F 85.4 °F 68.0 °F 62% 29.90 in 10.0 mi SSW 17.3 mph 25.3 mph N/A   Mostly Cloudy
12:15 PM 82.4 °F 84.6 °F 66.2 °F 58% 29.90 in 10.0 mi South 13.8 mph 20.7 mph N/A   Mostly Cloudy
12:35 PM 82.4 °F 84.6 °F 66.2 °F 58% 29.89 in 10.0 mi South 16.1 mph 19.6 mph N/A   Mostly Cloudy
12:55 PM 86.0 °F 89.4 °F 68.0 °F 55% 29.89 in 10.0 mi South 12.7 mph 19.6 mph N/A   Mostly Cloudy
1:15 PM 86.0 °F 89.4 °F 68.0 °F 55% 29.88 in 10.0 mi SSE 17.3 mph 23.0 mph N/A   Mostly Cloudy
1:35 PM 84.2 °F 86.6 °F 66.2 °F 55% 29.87 in 10.0 mi South 19.6 mph 24.2 mph N/A   Mostly Cloudy
1:55 PM 87.8 °F 91.4 °F 68.0 °F 52% 29.86 in 10.0 mi South 15.0 mph 20.7 mph N/A   Mostly Cloudy
2:15 PM 87.8 °F 91.4 °F 68.0 °F 52% 29.86 in 10.0 mi SSE 18.4 mph - N/A   Mostly Cloudy
2:35 PM 86.0 °F 88.2 °F 66.2 °F 51% 29.85 in 10.0 mi South 12.7 mph 20.7 mph N/A   Mostly Cloudy
2:55 PM 89.6 °F 93.4 °F 68.0 °F 49% 29.83 in 10.0 mi SSE 18.4 mph 21.9 mph N/A   Mostly Cloudy
3:15 PM 89.6 °F 92.2 °F 66.2 °F 46% 29.83 in 10.0 mi South 17.3 mph 26.5 mph N/A   Scattered Clouds
3:35 PM 89.6 °F 92.2 °F 66.2 °F 46% 29.82 in 10.0 mi South 19.6 mph 24.2 mph N/A   Mostly Cloudy
3:55 PM 89.6 °F 91.1 °F 64.4 °F 43% 29.82 in 10.0 mi SSE 17.3 mph 25.3 mph N/A   Mostly Cloudy
4:15 PM 89.6 °F 91.1 °F 64.4 °F 43% 29.82 in 10.0 mi SSE 12.7 mph - N/A   Mostly Cloudy
4:35 PM 89.6 °F 91.1 °F 64.4 °F 43% 29.81 in 10.0 mi SSE 18.4 mph 26.5 mph N/A   Mostly Cloudy
4:55 PM 89.6 °F 91.1 °F 64.4 °F 43% 29.81 in 10.0 mi SSE 20.7 mph 25.3 mph N/A   Scattered Clouds
5:15 PM 89.6 °F 91.1 °F 64.4 °F 43% 29.81 in 10.0 mi South 16.1 mph 25.3 mph N/A   Scattered Clouds
5:35 PM 89.6 °F 92.2 °F 66.2 °F 46% 29.81 in 10.0 mi SSE 18.4 mph 27.6 mph N/A   Scattered Clouds
5:55 PM 86.0 °F 87.3 °F 64.4 °F 48% 29.81 in 10.0 mi South 19.6 mph 23.0 mph N/A   Scattered Clouds
6:15 PM 84.2 °F 85.6 °F 64.4 °F 51% 29.82 in 10.0 mi SSE 15.0 mph - N/A   Scattered Clouds
6:35 PM 84.2 °F 85.6 °F 64.4 °F 51% 29.82 in 10.0 mi South 15.0 mph - N/A   Mostly Cloudy
6:55 PM 82.4 °F 83.9 °F 64.4 °F 54% 29.81 in 10.0 mi SSE 15.0 mph 20.7 mph N/A   Overcast
7:15 PM 82.4 °F 83.9 °F 64.4 °F 54% 29.81 in 10.0 mi SSE 12.7 mph 20.7 mph N/A   Overcast
7:35 PM 82.4 °F 84.6 °F 66.2 °F 58% 29.80 in 10.0 mi SSE 11.5 mph 19.6 mph N/A   Mostly Cloudy
7:55 PM 80.6 °F 82.7 °F 66.2 °F 61% 29.80 in 10.0 mi SSE 12.7 mph - N/A   Mostly Cloudy
8:15 PM 80.6 °F 83.2 °F 68.0 °F 65% 29.80 in 10.0 mi SE 11.5 mph - N/A   Mostly Cloudy
8:35 PM 80.6 °F 83.2 °F 68.0 °F 65% 29.81 in 10.0 mi SSE 12.7 mph 17.3 mph N/A   Mostly Cloudy
8:55 PM 80.6 °F 83.2 °F 68.0 °F 65% 29.82 in 10.0 mi SSE 15.0 mph - N/A   Overcast
9:15 PM 80.6 °F 83.2 °F 68.0 °F 65% 29.83 in 10.0 mi SSE 12.7 mph 20.7 mph N/A   Overcast
9:35 PM 80.6 °F 83.2 °F 68.0 °F 65% 29.85 in 10.0 mi South 13.8 mph 20.7 mph N/A   Overcast
9:55 PM 78.8 °F - 68.0 °F 69% 29.85 in 10.0 mi SSE 12.7 mph - N/A   Mostly Cloudy
10:15 PM 78.8 °F - 68.0 °F 69% 29.85 in 10.0 mi SSE 16.1 mph 19.6 mph N/A   Mostly Cloudy
10:35 PM 78.8 °F - 68.0 °F 69% 29.84 in 10.0 mi SSE 13.8 mph 18.4 mph N/A   Mostly Cloudy
10:55 PM 78.8 °F - 69.8 °F 74% 29.84 in 10.0 mi SSE 13.8 mph 23.0 mph N/A   Scattered Clouds
11:15 PM 78.8 °F - 69.8 °F 74% 29.84 in 10.0 mi SSE 12.7 mph 20.7 mph N/A   Clear
11:35 PM 78.8 °F - 69.8 °F 74% 29.84 in 10.0 mi SSE 16.1 mph 19.6 mph N/A   Scattered Clouds
11:55 PM 78.8 °F - 69.8 °F 74% 29.84 in 10.0 mi SSE 15.0 mph 21.9 mph N/A   Scattered Clouds